Location: *
(49.3500°N, 12.6000°E)
Time: 18:18:44
(UTC+00:00)

BREEZE-M DEB (TANK) - Pass Details

Date: 18 October 2019
Orbit: 667 x 22262 km, 51.1° (Epoch: 20 November)

Event Time Altitude Azimuth Distance (km) Brightness Sun altitude
Rises 17:30:34 0° 288° (WNW) 3,040 7.6 -13.2°
Reaches altitude 10° 17:32:14 10° 287° (WNW) 2,251 6.7 -13.4°
Maximum altitude 17:36:32 76° 202° (SSW) 1,129 3.9 -14.1°
Enters shadow 17:47:23 13° 119° (ESE) 5,498 6.8 -15.9°
